Location: Alvis C Story Elementary School
(33.0968°N, 96.6364°W)
Time: 03:49:11
(UTC+00:00)

Envisat - Visible Passes

Search period start: 18 May 2022 00:00
Search period end: 28 May 2022 00:00
Orbit: 764 x 765 km, 98.2° (Epoch: 17 May)

Date Brightness Start Highest point End Pass type
(mag) Time Alt. Az. Time Alt. Az. Time Alt. Az.
18 May 5.6 09:54:25 10° NE 09:57:38 17° E 10:00:49 10° SE visible
19 May 3.2 10:54:53 10° NNE 10:59:58 76° ESE 11:05:02 10° S visible
20 May 4.8 10:18:30 10° NE 10:22:58 31° E 10:27:25 10° SSE visible
21 May 5.8 09:43:43 10° ENE 09:45:48 12° E 09:47:52 10° ESE visible
22 May 3.7 10:43:13 10° NNE 10:48:13 57° E 10:53:12 10° S visible
23 May 5.2 10:07:08 10° NE 10:11:10 23° E 10:15:11 10° SSE visible
25 May 4.2 10:31:37 10° NNE 10:36:28 43° E 10:41:15 10° S visible
26 May 5.5 09:55:57 10° NE 09:59:21 18° E 10:02:43 10° SE visible
